Probability
0 0 0 0 0 0 0 0 0 0 0 0 0 0 0 0 0 0 0 0 0 0 0 0 0 0 0 0 0 0 0 0 0 0 0 0 0 0 0 0 0 0 0 0
0 0 0 0 0 0 0 0 0 0 0 0 0 0 0 0 0 0 0 0 0 0 0 0 0 0 0 0 0 0 0 0 0 0 0 0 0 0 0 0 0 0 0 0
0 0 0 0 0 0 0 0 0 0 0 0 0 0 0 0 0 0 0 0 0 0 0 0 0 0 0 0 0 0 0 0 0 0 0 0 0 0 0 0 0 0 0 0
0 0 0 0 0 0 0 0 0 0 0 0 0 0 0 0 0 0 0 0 0 0 0 0 0 0 0 0 0 0 0 0 0 0 0 0 0 0 0 0 0 0 0 0
0 0 0 0 0 0 0 0 0 0 0 0 0 0 0 0 0 0 0 0 0 0 0 0 0 0 0 0 0 0 0 0 0 0 0 0 0 0 0 0 0 0 0 0
0 0 0 0 0 0 0 0 0 0 0 0 0 0 0 0 0 0 0 0 0 0 0 0 0 0 0 0 0 0 0 0 0 0 0 0 0 0 0 0 0 0 0 0
0 0 0 0 0 0 0 0 0 0 0 0 0 0 0 0 0 0 0 0 0 0 0 0 0 0 0 0 0 0 0 0 0 0 0 0 0 0 0 0 0 0 0 0
0 0 0 0 0 0 0 0 0 0 0 0 0 0 0 0 0 0 0 0 0 0 0 0 0 0 0 0 0 0 0 0 0 0 0 0 0 0 0 0 0 0 0 0
0 0 0 0 0 0 0 0 0 0 0 0 0 0 0 0 0 0 0 0 0 0 0 0 0 0 0 0 0 0 0 0 0 0 0 0 0 0 0 0 0 0 0 0
0 0 0 0 0 0 0 0 0 0 0 0 0 0 0 0 0 0 0 0 0 0 0 0 0 0 0 0 0 0 0 0 0 0 0 0 0 0 0 0 0 0 0 0
0 0 0 0 0 0 0 0 0 0 0 0 0 0 0 0 0 0 0 0 0 0 0 0 0 0 0 0 0 0 0 0 0 0 0 0 0 0 0 0 0 0 0 0
0 0 0 0 0 0 0 0 0 0 0 0 0 0 0 0 0 0 0 0 0 0 0 0 0 0 0 0 0 0 0 0 0 0 0 0 0 0 0 0 0 0 0 0
0 0 0 0 0 0 0 0 0 0 0 0 0 0 0 0 0 0 0 0 0 0 0 0 0 0 0 0 0 0 0 0 0 0 0 0 0 0 0 0 0 0 0 0
0 0 0 0 0 0 0 0 0 0 0 0 0 0 0 0 0 0 0 0 0 0 0 0 0 0 0 0 0 0 0 0 0 0 0 0 0 0 0 0 0 0 0 0
0 0 0 0 0 0 0 0 0 0 0 0 0 0 0 0 0 0 0 0 0 0 0 0 0 0 0 0 0 0 0 0 0 0 0 0 0 0 0 0 0 0 0 0
0 0 0 0 0 0 0 0 0 0 0 0 0 0 0 0 0 0 0 0 0 0 0 0 0 0 0 0 0 0 0 0 0 0 0 0 0 0 0 0 0 0 0 0
0 0 0 0 0 0 0 0 0 0 0 0 0 0 0 0 0 0 0 0 0 0 0 0 0 0 0 0 0 0 0 0 0 0 0 0 0 0 0 0 0 0 0 0
0 0 0 0 0 0 0 0 0 0 0 0 0 0 0 0 0 0 0 0 0 0 0 0 0 0 0 0 0 0 0 0 0 0 0 0 0 0 0 0 0 0 0 0
0 0 0 0 0 0 0 0 0 0 0 0 0 0 0 0 0 0 0 0 0 0 0 0 0 0 0 0 0 0 0 0 0 0 0 0 0 0 0 0 0 0 0 0
0 0 0 0 0 0 0 0 0 0 0 0 0 0 0 0 0 0 0 0 0 0 0 0 0 0 0 0 0 0 0 0 0 0 0 0 0 0 0 0 0 0 0 0
0 0 0 0 0 0 0 0 0 0 0 0 0 0 0 0 0 0 0 0 0 0 0 0 0 0 0 0 0 0 0 0 0 0 0 0 0 0 0 0 0 0 0 0
0 0 0 0 0 0 0 0 0 0 0 0 0 0 0 0 0 0 0 0 0 0 0 0 0 0 0 0 0 0 0 0 0 0 0 0 0 0 0 0 0 0 0 0
0 0 0 0 0 0 0 0 0 0 0 0 0 0 0 0 0 0 0 0 0 0 0 0 0 0 0 0 0 0 0 0 0 0 0 0 0 0 0 0 0 0 0 0
0 0 0 0 0 0 0 0 0 0 0 0 0 0 0 0 0 0 0 0 0 0 0 0 0 0 0 0 0 0 0 0 0 0 0 0 0 0 0 0 0 0 0 0
0 0 0 0 0 0 0 0 0 0 0 0 0 0 0 0 0 0 0 0 0 0 0 0 0 0 0 0 0 0 0 0 0 0 0 0 0 0 0 0 0 0 0 0
0 0 0 0 0 0 0 0 0 0 0 0 0 0 0 0 0 0 0 0 0 0 0 0 0 0 0 0 0 0 0 0 0 0 0 0 0 0 0 0 0 0 0 0
0 0 0 0 0 0 0 0 0 0 0 0 0 0 0 0 0 0 0 0 0 0 0 0 0 0 0 0 0 0 0 0 0 0 0 0 0 0 0 0 0 0 0 0
Wind_Speed
8 7 7 10 11 11 13 12 11 10 11 12 10 9 9 8 7 7 6 6 6 6 5 5 5 5 5 5 5 6 6 7 7 6 5 5 4 4 4 3 3 3 2 2
5 4 7 11 14 15 15 15 17 18 17 11 8 7 8 7 7 7 7 7 6 6 6 6 5 5 5 5 5 6 7 7 7 6 6 6 5 5 5 4 4 3 3 3
4 4 8 10 9 12 10 10 11 13 11 6 7 7 7 7 7 8 8 7 7 7 6 6 6 5 6 5 5 7 7 7 7 7 7 7 6 6 6 5 5 5 4 4
5 6 7 0 2 4 8 9 12 12 10 8 8 9 9 9 8 8 8 8 7 6 6 6 6 5 5 5 6 7 7 7 7 7 7 7 6 7 6 5 5 5 5 5
3 5 10 4 2 4 5 6 7 11 12 9 7 8 7 4 5 7 8 8 7 6 6 6 6 5 5 5 6 7 8 8 8 8 7 7 7 7 6 6 6 5 5 5
4 5 7 1 2 2 3 5 1 5 6 5 3 6 5 3 5 7 7 6 6 6 6 6 5 4 5 6 6 8 8 7 7 8 8 8 8 7 6 6 6 5 5 5
8 7 10 3 3 4 4 2 1 3 4 4 6 7 7 7 8 8 8 7 6 6 6 6 5 5 6 7 8 7 6 6 7 8 8 8 7 6 6 6 5 5 6 6
7 8 9 4 6 6 4 3 3 4 5 7 9 10 10 10 9 8 8 7 6 6 7 6 5 6 7 8 7 5 6 6 7 7 7 6 7 6 6 6 6 6 6 6
9 8 2 4 6 4 3 6 6 7 7 8 10 11 11 11 10 9 8 8 6 7 7 6 6 6 8 8 5 5 6 7 7 7 7 7 7 7 6 6 5 5 5 5
8 11 10 9 10 9 8 9 10 9 10 9 11 12 12 10 9 9 8 7 6 7 8 8 6 7 8 7 5 6 7 7 6 6 7 7 6 6 6 6 6 6 6 6
10 11 9 7 7 7 8 9 9 10 9 10 11 12 11 10 10 9 8 7 7 7 8 9 8 7 7 6 6 7 7 7 6 6 6 6 7 6 7 7 7 7 6 5
9 7 7 8 7 8 9 10 10 10 10 9 9 11 11 10 9 9 8 7 7 8 9 9 8 8 7 6 6 7 6 6 6 5 5 5 6 5 8 9 10 11 10 8
10 8 10 12 11 9 9 10 10 10 10 11 9 9 10 9 9 8 8 9 9 9 9 9 8 9 7 6 7 8 8 7 5 6 6 6 6 6 5 7 10 11 12 12
10 8 10 8 9 9 9 9 9 9 8 8 8 8 8 8 8 9 9 9 9 9 9 9 9 9 7 6 7 8 8 8 7 6 6 6 6 6 5 5 5 5 8 11
8 7 9 9 10 9 8 7 7 8 8 8 7 7 8 8 9 9 9 8 8 9 9 9 9 9 6 6 7 8 7 6 6 6 6 6 5 5 5 6 5 5 4 5
5 6 7 7 8 8 8 7 8 9 8 9 9 8 8 9 9 10 9 7 7 9 9 9 10 8 5 6 7 6 6 8 7 6 5 6 5 6 6 6 6 5 5 5
5 5 5 6 7 8 8 8 8 9 9 9 9 9 9 9 9 10 9 8 8 9 9 9 10 7 6 6 7 5 5 6 9 6 6 6 6 6 6 6 6 6 5 6
7 8 7 8 8 9 10 9 9 9 9 9 9 8 9 9 10 11 10 8 8 9 9 9 8 6 6 6 6 5 5 5 6 6 6 6 6 5 6 6 6 7 5 5
6 7 8 8 9 9 9 10 9 9 9 9 9 9 10 10 10 10 9 8 9 10 8 6 6 6 6 6 6 5 5 5 5 5 5 7 6 5 6 6 6 6 5 5
5 6 7 8 8 8 9 10 9 10 9 8 9 10 11 11 9 9 8 9 9 8 7 6 6 6 6 6 6 5 5 6 6 5 5 6 6 6 6 6 6 6 6 5
6 7 8 8 9 9 10 10 9 10 10 9 9 11 11 11 9 8 8 9 8 6 6 7 6 5 5 5 6 5 6 6 6 6 6 6 6 6 6 6 6 6 6 5
7 8 9 9 10 11 9 9 9 11 11 10 10 10 11 11 10 9 10 9 8 7 5 5 5 6 7 7 5 5 6 6 6 5 6 6 6 6 6 6 6 5 5 5
8 9 10 10 11 11 11 10 10 10 11 11 11 11 11 10 8 8 9 6 5 7 6 6 7 9 10 6 5 5 6 6 6 6 6 6 6 6 6 6 5 5 5 5
10 10 10 10 10 11 13 12 10 9 10 11 11 10 10 9 8 8 8 8 9 9 7 8 11 11 10 5 5 5 6 6 6 6 6 5 5 5 5 5 5 5 5 6
10 10 10 10 10 10 11 11 10 10 10 9 10 10 8 7 8 7 6 7 9 9 7 8 11 10 7 5 5 6 5 6 5 5 5 5 5 5 5 5 5 5 5 5
10 10 10 10 10 10 9 8 9 9 8 8 8 7 6 6 7 7 6 7 9 9 7 6 6 7 5 5 6 6 5 5 6 6 6 5 6 5 5 5 6 5 5 4
10 10 9 9 9 9 8 8 9 9 8 8 9 8 7 6 6 6 7 6 6 6 5 5 5 5 5 5 5 5 5 5 5 5 5 5 5 5 5 6 4 4 4 4
Wind_Direction
270 273 260 254 246 226 223 234 250 265 271 281 293 294 293 292 289 287 285 284 283 282 281 272 263 256 248 240 226 215 213 216 219 219 215 213 210 210 211 216 227 239 248 257
276 258 264 263 252 239 237 241 249 266 276 285 294 288 285 283 282 281 282 286 286 282 279 274 266 259 252 243 227 216 218 220 216 212 209 210 211 211 211 216 222 227 237 248
278 310 291 263 243 219 219 224 232 247 259 287 290 289 290 288 282 280 284 285 282 279 275 275 271 261 254 247 228 218 220 220 214 210 211 212 210 212 215 216 219 225 230 237
295 307 257 27 78 212 226 245 234 250 267 278 288 298 289 278 272 280 286 286 284 279 277 276 272 261 255 244 226 221 222 221 216 212 214 213 213 217 220 221 223 227 230 235
265 284 280 285 196 192 222 265 234 240 262 277 298 297 278 264 266 278 286 286 283 276 274 273 268 260 249 237 225 223 225 223 217 212 214 213 215 219 219 218 223 226 230 235
234 262 265 357 122 180 231 260 197 227 259 275 286 290 315 343 305 294 290 284 280 278 273 267 261 249 239 237 229 230 228 225 218 213 215 216 217 217 215 217 224 224 230 235
230 248 269 273 149 169 244 350 19 254 264 252 250 279 310 309 299 294 291 286 280 273 266 263 258 241 240 241 239 239 234 225 217 214 216 218 216 211 209 213 219 224 233 236
202 222 253 158 158 212 286 338 300 285 278 272 275 287 292 292 291 293 292 287 279 271 268 266 252 240 245 247 247 239 227 222 219 215 211 210 210 208 208 210 218 226 234 241
211 230 308 178 221 266 296 286 290 288 286 284 285 285 289 289 289 289 286 283 278 270 272 267 251 240 249 255 250 232 224 224 221 216 212 209 208 206 206 210 219 226 231 239
253 261 265 264 266 268 267 272 283 284 283 282 280 284 286 286 285 286 284 280 277 272 270 269 260 249 250 255 241 227 228 226 219 214 212 210 209 209 209 210 216 223 229 235
254 273 286 270 256 273 285 284 283 283 280 279 280 280 282 284 284 284 282 278 271 266 268 271 270 262 256 248 233 229 231 226 220 217 214 213 214 215 217 221 222 224 229 232
254 266 269 286 299 302 294 292 293 292 291 286 279 279 284 283 284 284 281 278 274 269 268 271 270 265 258 242 228 228 230 226 220 215 214 214 215 223 226 231 231 234 239 239
264 281 282 288 294 293 290 294 296 290 286 287 286 282 281 283 285 283 280 276 272 272 273 274 271 266 259 239 226 225 228 226 220 217 215 213 214 218 224 224 228 235 237 239
262 273 277 279 289 297 297 296 295 288 283 281 284 284 281 280 282 281 278 278 278 278 276 273 269 266 260 239 228 230 230 225 221 220 218 216 216 219 223 224 224 228 230 235
256 253 264 284 292 295 298 295 293 291 292 290 286 282 281 281 283 283 285 285 281 276 273 272 270 269 264 240 231 231 228 224 219 220 219 219 217 218 221 224 230 231 226 226
276 276 268 273 284 294 297 292 288 290 292 292 290 288 287 285 285 286 284 278 274 275 277 276 272 271 261 240 233 231 229 221 216 218 217 215 214 216 218 220 224 226 226 223
255 269 271 279 284 290 288 284 281 283 287 285 286 291 291 289 287 284 283 277 272 272 273 270 271 270 252 234 228 228 227 218 211 217 219 215 215 218 219 219 223 227 229 221
236 250 261 268 276 285 289 288 283 282 280 283 289 288 284 281 282 286 289 290 285 279 270 263 262 257 246 234 227 226 222 219 215 218 219 217 219 220 220 222 226 230 231 224
246 255 265 268 269 274 279 283 284 282 281 281 280 278 277 275 276 280 283 280 276 277 276 264 248 249 247 235 221 223 222 221 220 220 219 220 223 223 222 223 227 228 226 223
262 265 270 273 273 269 274 278 281 281 279 277 278 280 280 278 277 276 276 270 264 265 270 266 260 255 246 234 218 223 220 219 220 220 218 219 221 223 222 223 225 227 227 227
274 277 279 280 281 277 273 275 276 278 281 277 272 274 277 281 279 271 269 274 272 261 259 254 251 249 241 230 220 224 222 222 221 220 219 222 223 224 223 223 223 225 228 229
274 278 281 282 282 283 281 276 273 275 279 278 273 272 274 277 275 268 257 259 270 262 262 258 252 242 238 236 232 226 225 226 226 222 221 222 222 223 223 222 223 225 226 227
275 276 278 279 279 282 286 281 273 271 272 272 271 270 269 269 269 267 273 264 259 256 257 256 249 245 244 240 233 228 227 227 227 225 225 224 223 223 223 221 222 223 224 224
276 277 277 279 281 281 281 281 276 270 269 271 268 264 264 268 267 254 255 265 263 262 261 256 252 249 246 241 230 227 228 228 228 227 226 224 222 221 221 220 221 222 223 224
274 276 277 278 278 277 277 280 281 277 274 272 272 267 257 249 255 267 267 262 259 260 262 255 250 247 243 236 229 227 227 227 226 225 224 220 218 218 219 217 217 219 221 222
270 272 273 271 271 275 277 277 277 278 278 278 278 274 266 257 254 259 261 258 257 256 257 254 246 238 233 231 229 228 228 228 227 224 221 218 217 216 216 216 217 218 220 221
268 269 271 273 270 264 264 265 267 271 270 270 276 279 275 269 263 259 259 259 257 253 251 248 241 233 229 228 229 228 225 222 221 218 214 213 211 211 212 211 212 212 214 216